Precipitable_Water
0.78 0.85 0.90 1.02 1.16 1.15 1.07 1.11 1.16 1.20 1.28 1.31 1.39 1.40 1.38 1.38 1.28 1.12 1.06 1.08 1.15 1.20
0.70 0.73 0.85 0.95 1.11 1.11 1.18 1.19 1.21 1.21 1.21 1.29 1.30 1.34 1.37 1.32 1.19 1.10 1.08 1.07 1.18 1.33
0.65 0.70 0.75 0.88 0.95 1.08 1.21 1.28 1.30 1.27 1.25 1.26 1.28 1.36 1.35 1.24 1.15 1.06 1.09 1.15 1.26 1.38
0.55 0.61 0.73 0.82 0.93 1.05 1.15 1.35 1.33 1.29 1.27 1.26 1.29 1.35 1.27 1.19 1.16 1.03 1.13 1.20 1.30 1.37
0.57 0.59 0.63 0.72 0.85 1.00 1.11 1.26 1.31 1.36 1.27 1.25 1.24 1.25 1.23 1.17 1.13 1.04 1.04 1.12 1.23 1.31
0.52 0.55 0.62 0.66 0.80 0.87 1.01 1.15 1.28 1.36 1.26 1.21 1.22 1.24 1.21 1.16 1.10 1.05 1.07 1.11 1.12 1.23
0.49 0.51 0.56 0.63 0.70 0.85 0.91 1.07 1.26 1.29 1.34 1.27 1.21 1.22 1.21 1.15 1.09 1.05 1.07 1.11 1.15 1.21
0.44 0.50 0.53 0.58 0.64 0.78 0.86 0.97 1.17 1.28 1.30 1.29 1.22 1.22 1.22 1.16 1.11 1.06 1.05 1.08 1.12 1.18
0.41 0.43 0.49 0.54 0.60 0.67 0.87 0.90 1.07 1.23 1.32 1.24 1.23 1.18 1.26 1.21 1.12 1.07 1.02 1.02 1.11 1.19
0.42 0.42 0.46 0.51 0.57 0.63 0.79 0.92 0.94 1.09 1.19 1.27 1.23 1.18 1.24 1.20 1.15 1.07 1.02 1.01 1.06 1.12
0.43 0.42 0.46 0.49 0.56 0.62 0.78 0.91 0.91 1.05 1.14 1.34 1.15 1.17 1.22 1.24 1.17 1.07 1.00 1.02 1.03 1.07
0.44 0.42 0.45 0.49 0.53 0.62 0.72 0.85 0.94 0.98 1.04 1.23 1.13 1.05 1.15 1.12 1.08 1.00 0.94 0.96 0.97 1.00
0.46 0.45 0.45 0.50 0.54 0.59 0.65 0.76 0.96 0.89 0.97 1.04 1.07 1.01 1.08 1.07 1.04 0.94 0.91 0.90 0.93 0.94
0.45 0.45 0.46 0.49 0.55 0.58 0.60 0.72 0.90 0.92 1.06 1.11 1.09 0.95 1.01 1.03 1.00 0.97 0.89 0.84 0.84 0.87
Wind_Speed
23 25 25 27 28 30 30 30 31 33 32 31 31 30 29 28 27 28 28 28 30 31
22 23 24 26 27 28 30 30 30 31 32 33 32 31 30 28 27 27 28 28 29 31
20 22 24 25 26 27 29 30 30 31 30 32 32 31 30 28 28 27 28 28 30 31
19 20 21 24 26 27 28 30 30 31 30 30 31 30 30 29 28 27 27 27 28 30
21 21 21 23 25 27 29 29 32 32 31 30 29 29 30 29 28 28 27 27 28 28
22 22 24 24 25 27 29 31 33 33 33 31 30 30 30 30 29 28 27 26 26 26
22 23 24 25 25 28 30 32 33 35 34 33 31 29 29 29 28 27 26 25 25 25
23 24 24 25 26 27 29 31 33 35 35 34 32 29 29 29 28 27 26 25 25 25
23 25 25 25 26 27 29 31 34 36 35 36 33 30 29 29 28 27 26 25 25 25
25 25 25 26 26 26 28 31 33 36 39 38 33 31 29 29 28 28 27 26 25 25
26 26 26 26 26 26 27 29 32 36 37 28 30 30 28 28 27 27 25 25 24 25
28 28 27 27 26 26 26 29 31 35 37 32 30 29 29 29 29 27 26 24 24 24
29 29 28 28 27 27 27 29 30 32 36 35 32 31 30 29 28 26 25 23 22 22
30 31 30 29 28 28 27 26 29 31 31 35 33 31 31 30 28 27 25 23 21 20
Wind_Direction
255 254 253 250 247 245 245 244 240 238 238 237 235 240 240 243 247 252 251 254 249 247
260 260 255 253 249 248 246 243 239 238 236 235 236 239 240 243 249 252 253 256 250 247
265 263 259 254 252 250 245 241 239 235 235 234 235 238 239 243 249 252 256 257 252 250
270 269 263 258 253 249 244 239 236 233 234 234 235 237 239 243 248 253 256 255 252 253
273 271 269 264 258 250 245 243 237 233 233 233 236 238 239 243 248 252 255 255 255 258
273 272 269 269 262 253 247 242 239 236 232 234 238 239 241 244 248 251 254 256 255 256
279 275 271 268 266 256 250 243 241 235 233 234 237 238 241 242 246 249 252 254 256 253
283 278 274 269 267 261 251 246 241 235 232 233 235 238 240 241 244 247 249 254 254 250
290 280 275 272 267 266 254 248 239 235 231 231 233 236 238 241 243 244 248 252 251 251
289 284 277 273 268 267 256 248 243 235 233 226 228 232 236 239 242 244 248 250 251 251
288 288 280 274 269 266 260 250 244 234 233 210 226 232 237 236 240 242 248 249 251 250
288 289 281 273 268 264 264 250 244 234 232 234 232 234 235 238 240 242 246 248 251 252
284 288 280 272 267 263 262 253 241 236 232 232 232 234 235 236 237 238 240 245 250 252
285 287 280 271 265 263 261 252 239 231 231 231 227 231 232 232 234 235 237 242 246 248